Location: Linton
(52.0940°N, 0.2850°E)
Time: 03:15:15
(UTC+01:00)

ISS - Pass Details

Date: 07 October 2017
Orbit: 401 x 408 km, 51.6° (Epoch: 23 October)

Event Time Altitude Azimuth Distance (km) Brightness Sun altitude
Rises 21:03:30 0° 282° (WNW) 2,331 1.3 -25.1°
Reaches altitude 10° 21:05:41 10° 274° (W) 1,470 -0.1 -25.4°
Enters shadow 21:07:11 22° 257° (WSW) 942 -1.5 -25.6°
